Chihuahua, Mexico

8:31 PM MDT on June 22, 2017 (GMT -0600)
Gen Div P A Roberto Fierro

Weather History for MMCU - March, 2013

Change the Weather History Date:

Tuesday, March 12, 2013

  Actual Average Record
Temperature  
Mean Temperature 55 °F -  
Max Temperature 74 °F 73 °F 82 °F (2002)
Min Temperature 36 °F 42 °F 33 °F (2012)
Degree Days  
Heating Degree Days 10    
Growing Degree Days 5 (Base 50)    
Moisture  
Dew Point 13 °F    
Average Humidity 15    
Maximum Humidity 32    
Minimum Humidity 8    
Precipitation  
Precipitation 0.00 in - - ()
Sea Level Pressure  
Sea Level Pressure 30.08 in    
Wind  
Wind Speed 6 mph ()    
Max Wind Speed 16 mph    
Max Gust Speed -    
Visibility 7.9 miles    
Events      
Averages and records for this station are not official NWS values.
T = Trace of Precipitation, MM = Missing Value Source: Averaged Metar Reports

Daily Weather History Graph

Daily Weather History Graph

Search for Another Location

Airport or City:

Trip Planner

Search our weather history database for the weather conditions in past years. The results will help you decide how hot, cold, wet, or windy it might be!

Date:

Astronomy

Mar. 12, 2013 Rise Set
Actual Time 6:16 AM MST 6:10 PM MST
Civil Twilight 5:52 AM MST 6:34 PM MST
Nautical Twilight 5:25 AM MST 7:01 PM MST
Astronomical Twilight 4:58 AM MST 7:29 PM MST
Moon 6:32 AM MST (3/12) 7:18 PM MST (3/12)
Length of Visible Light 12h 41m
Length of Day
11h 54m
New Moon, 1% of the Moon is Illuminated
Mar 12
New Moon
Mar 19
First Quarter
Mar 27
Full
Apr 2
Last Quarter
Apr 10
New

Hourly Weather History & Observations

Time (MST) Temp. Windchill Dew Point Humidity Pressure Visibility Wind Dir Wind Speed Gust Speed Precip Events Conditions
1:50 AM 48 °F - 17 °F 17% 29.91 in 1 mi West 6.7 mph - -  
4:45 AM 49 °F - 15 °F 14% 29.95 in 1 mi West 8.9 mph - -  
4:50 AM 32.0 °F 25.6 °F 5.0 °F 32% 30.11 in 10.0 mi South 6.9 mph - N/A   Clear
5:42 AM 30.2 °F 21.3 °F 3.2 °F 32% 30.16 in 10.0 mi SSE 10.4 mph - N/A   Clear
6:40 AM 32.0 °F 24.2 °F 5.0 °F 32% 30.17 in 10.0 mi South 9.2 mph - N/A   Clear
7:40 AM 44.6 °F 40.7 °F 10.4 °F 25% 30.12 in 10.0 mi South 6.9 mph - N/A   Clear
7:45 AM 48 °F - 24 °F 25% 30.04 in 6 mi Calm Calm - -  
8:40 AM 51.8 °F - 14.0 °F 22% 30.23 in 10.0 mi South 3.5 mph - N/A   Clear
9:40 AM 59.0 °F - 14.0 °F 17% 30.23 in 10.0 mi Calm Calm - N/A   Clear
10:40 AM 64.4 °F - 15.8 °F 15% 30.11 in 10.0 mi Calm Calm - N/A   Clear
10:45 AM 65 °F - 21 °F 10% 30.04 in 6 mi East 2.2 mph - -  
11:40 AM 69.8 °F - 14.0 °F 12% 30.21 in 10.0 mi East 9.2 mph - N/A   Clear
12:40 PM 71.6 °F - 14.0 °F 11% 30.18 in 10.0 mi NE 11.5 mph - N/A   Clear
1:40 PM 73 °F - 28 °F 10% 29.92 in 6 mi ENE 4.5 mph - -  
1:40 PM 71.6 °F - 14.0 °F 11% 30.05 in 10.0 mi NE 5.8 mph - N/A   Clear
2:40 PM 73.4 °F - 12.2 °F 10% 30.13 in 10.0 mi NE 16.1 mph - N/A   Clear
3:40 PM 73.4 °F - 8.6 °F 8% 30.13 in 10.0 mi ENE 6.9 mph - N/A   Clear
4:40 PM 72 °F - 24 °F 8% 29.83 in 6 mi ENE 6.7 mph - -  
4:40 PM 71.6 °F - 8.6 °F 9% 30.04 in 10.0 mi ENE 13.8 mph - N/A   Clear
5:40 PM 69.8 °F - 10.4 °F 10% 30.15 in 10.0 mi NE 9.2 mph - N/A   Clear
6:40 PM 60.8 °F - 3.2 °F 10% 30.18 in 10.0 mi ENE 6.9 mph - N/A   Clear
7:40 PM 55.4 °F - 3.2 °F 12% 30.09 in 10.0 mi East 9.2 mph - N/A   Clear
7:48 PM 56 °F - 13 °F 9% 29.87 in 1 mi Calm Calm - -  
8:40 PM 57.2 °F - 5.0 °F 12% 30.22 in 10.0 mi Calm Calm - N/A   Clear
10:32 PM 54 °F - 11 °F 9% 29.93 in 1 mi NW 2.2 mph - -